User: anonymous   Login
Location: Stara Lesna
(49.1528°N, 20.2911°E)
Time: 13:45:14
(UTC+01:00)
Language:

STARLINK-78 - Orbit

View from above orbital plane
View from above orbital plane
View from above satellite
View from above satellite

Ground track
Ground track

The orbit data is extracted from the following two-line orbital elements,

1 44290U 19029BH  19316.83844697 +.00000600 +00000-0 +60496-4 0  9994
2 44290 053.0057 117.0314 0002033 124.2463 235.8718 15.05500075025388
Epoch (UTC): 12 November 2019 20:07:21
Eccentricity: 0.0002033
inclination: 53.0057°
perigee height: 548 km
apogee height: 551 km
right ascension of ascending node: 117.0314°
argument of perigee: 124.2463°
revolutions per day: 15.05500075
mean anomaly at epoch: 235.8718°
orbit number at epoch: 2538

The dashed part of the orbit path shows where the satellite is in the earth's shadow,  

DLR